Вернуться в каталог

STARLINK-4477

АктивенСвязьVLEO
NORAD 53546·PAYLOAD·🇺🇸 United States

Запущен Aug 19, 2022 с Cape Canaveral Space Force Station

Loading…

Ближайшие Пролёты (ближайшие 24 часа)

TLE

СвежийSource: CelesTrak SupGP

Эпоха: Sep 14, 2026, 21:14 UTC

1 53546C 22101V   26257.88520833  .00047899  00000+0  14155-2 0  2579
2 53546  53.1570 269.6293 0001208  88.3433 286.4337 15.34360685    18

Отслеживайте STARLINK-4477 в реальном времени с AllMySat

Download on the App Store